sat.trackr.live / text

‹ back to catalog

ONEWEB-0539

NORAD 54644 · 2022-166C

PAYLOAD ACTIVE UNKNOWN

§ Identity

Operator
Country
UK
Launch date
2022-12-08
Launch site
AFETR
Launch vehicle
Mass (kg)
RCS (m²)

Purposes: comms

External: N2YO · Heavens-Above · Gunter

§ Orbital elements

Epoch: 2026-05-24T23:26:12.749280Z

Period
108.94 min
Inclination
87.9259°
Eccentricity
0.0002129
Mean motion
13.21825879 rev/d
Perigee alt
1,176.1 km
Apogee alt
1,179.4 km
Semi-major
7,555.9 km
B*
-5.2480e-5
RAAN
248.5881°
Arg perigee
95.5958°
Mean anomaly
264.5418°
Rev number
16,847

§ Raw data

ONEWEB-05391 54644U 22166C   26144.97653645 -.00000009  00000+0 -52480-4 0  99952 54644  87.9259 248.5881 0002129  95.5958 264.5418 13.21825879168478

JSON: /api/v1/satellites/54644 · /tle

For live sub-satellite position, see the globe view (requires WebGL).

§ Visibility from observer

Set your observer location to see the next 7 days of passes ≥ 10°. The values pass through the URL so the page stays shareable.

No JS? Fill the form by hand. The geolocation button needs JavaScript.